Location: P�rn�nmaa
(61.1833°N, 23.0000°E)
Time: 19:42:47
(UTC+00:00)

Ariane Rocket - Pass Details

Date: 08 December 2019
Orbit: 760 x 770 km, 98.7° (Epoch: 17 January)

Event Time Altitude Azimuth Distance (km) Brightness Sun altitude
Exits shadow 18:03:29 42° 249° (WSW) 1,092 4.0 -32.2°
Maximum altitude 18:03:53 42° 262° (W) 1,079 4.0 -32.2°
Drops below altitude 10° 18:08:44 10° 333° (NNW) 2,311 5.9 -32.8°
Sets 18:11:10 0° 341° (NNW) 3,240 6.6 -33.1°
